Weather History for CYBW - September, 2014

Change the Weather History Date:

Tuesday, September 16, 2014

  Actual Average Record
Temperature  
Mean Temperature 54 °F -  
Max Temperature 75 °F 53 °F 78 °F (1998)
Min Temperature 33 °F 30 °F 28 °F (2003)
Degree Days  
Heating Degree Days 11    
Growing Degree Days 4 (Base 50)    
Moisture  
Dew Point 41 °F    
Average Humidity 69    
Maximum Humidity 100    
Minimum Humidity 27    
Precipitation  
Precipitation 0.00 in - - ()
Sea Level Pressure  
Sea Level Pressure 29.99 in    
Wind  
Wind Speed 5 mph ()    
Max Wind Speed 9 mph    
Max Gust Speed -    
Visibility 9.0 miles    
Events      
Averages and records for this station are not official NWS values.
T = Trace of Precipitation, MM = Missing Value Source: Averaged Metar Reports

Daily Weather History Graph

Daily Weather History Graph

Search for Another Location

Airport or City:

Trip Planner

Search our weather history database for the weather conditions in past years. The results will help you decide how hot, cold, wet, or windy it might be!

Date:

Astronomy

Sep. 16, 2014 Rise Set
Actual Time 7:14 AM MDT 7:49 PM MDT
Civil Twilight 6:41 AM MDT 8:22 PM MDT
Nautical Twilight 6:01 AM MDT 9:01 PM MDT
Astronomical Twilight 5:19 AM MDT 9:43 PM MDT
Moon No Moon Rise 3:44 PM MDT (9/16)
Length of Visible Light 13h 41m
Length of Day
12h 34m
Last Quarter, 43% of the Moon is Illuminated
Sep 16
Last Quarter
Sep 24
New
Oct 1
First Quarter
Oct 8
Full
Oct 15
Last Quarter

Hourly Weather History & Observations

Time (MDT) Temp. Windchill Dew Point Humidity Pressure Visibility Wind Dir Wind Speed Gust Speed Precip Events Conditions
12:00 AM 41.0 °F 36.4 °F 39.2 °F 93% 30.05 in 9.0 mi NNW 6.9 mph - N/A   Clear
1:00 AM 41.0 °F 35.8 °F 39.2 °F 93% 30.04 in 9.0 mi NW 8.1 mph - N/A   Clear
2:00 AM 39.2 °F 35.0 °F 37.4 °F 93% 30.03 in 9.0 mi NW 5.8 mph - N/A   Clear
3:00 AM 37.4 °F 32.8 °F 37.4 °F 100% 30.03 in 9.0 mi NW 5.8 mph - N/A   Clear
4:00 AM 37.4 °F 33.8 °F 37.4 °F 100% 30.02 in 9.0 mi WNW 4.6 mph - N/A   Clear
5:00 AM 37.4 °F 31.4 °F 35.6 °F 93% 30.02 in 9.0 mi NW 8.1 mph - N/A   Clear
6:00 AM 33.8 °F 27.7 °F 33.8 °F 100% 30.02 in 9.0 mi NW 6.9 mph - N/A   Clear
7:00 AM 33.8 °F 27.0 °F 33.8 °F 100% 30.03 in 9.0 mi NW 8.1 mph - N/A   Clear
8:00 AM 37.4 °F 31.4 °F 35.6 °F 93% 30.03 in 9.0 mi NW 8.1 mph - N/A   Clear
9:00 AM 46.4 °F 42.9 °F 42.8 °F 87% 30.02 in 9.0 mi NW 6.9 mph - N/A   Clear
10:00 AM 53.6 °F - 44.6 °F 72% 30.01 in 9.0 mi North 5.8 mph - N/A   Clear
11:00 AM 60.8 °F - 44.6 °F 55% 29.98 in 9.0 mi NNW 3.5 mph - N/A   Clear
12:00 PM 66.2 °F - 46.4 °F 49% 29.98 in 9.0 mi Calm Calm - N/A   Clear
1:00 PM 71.6 °F - 41.0 °F 33% 29.95 in 9.0 mi SE 5.8 mph - N/A   Clear
3:00 PM 73.4 °F - 39.2 °F 29% 29.94 in 9.0 mi Variable 4.6 mph - N/A   Clear
4:00 PM 75.2 °F - 39.2 °F 27% 29.92 in 9.0 mi Calm Calm - N/A   Clear
5:00 PM 75.2 °F - 41.0 °F 29% 29.91 in 9.0 mi ESE 8.1 mph - N/A   Clear
6:00 PM 75.2 °F - 42.8 °F 31% 29.92 in 9.0 mi SE 6.9 mph - N/A   Clear
7:00 PM 69.8 °F - 46.4 °F 43% 29.94 in 9.0 mi SSE 4.6 mph - N/A   Clear
8:00 PM 59.0 °F - 44.6 °F 59% 29.96 in 9.0 mi ESE 9.2 mph - N/A   Clear
9:00 PM 53.6 °F - 46.4 °F 77% 29.96 in 9.0 mi North 3.5 mph - N/A   Clear
10:00 PM 51.8 °F - 42.8 °F 71% 29.96 in 9.0 mi West 4.6 mph - N/A   Clear